Wind_Speed
45 21 32 43 47 42 45 40 41 45 40 35 31 26 29 27 27 31 37 26 30 43 36 40 36 37 35 35 34 30 27 26
51 48 42 40 29 44 44 43 39 47 45 36 30 30 27 29 29 32 42 24 37 27 33 36 38 37 38 37 36 35 31 31
55 49 47 43 49 49 48 46 38 45 47 41 37 32 32 33 31 30 32 29 40 30 36 43 42 43 41 36 36 41 35 33
59 55 49 48 49 53 51 50 42 44 46 47 41 39 38 38 28 25 30 30 21 33 37 46 43 46 47 43 45 32 35 34
61 58 55 52 55 56 54 55 47 45 49 50 45 42 40 35 31 27 27 29 32 23 33 36 48 47 54 46 43 43 41 33
60 59 57 56 59 59 57 53 53 47 52 53 50 44 39 39 39 32 29 31 33 32 29 30 32 53 51 48 52 47 38 34
67 65 63 57 60 62 59 52 57 48 53 56 54 51 44 37 36 37 31 30 31 31 29 31 32 43 41 55 47 43 39 39
62 62 63 62 61 64 64 59 59 61 56 60 58 52 52 41 34 37 38 34 32 32 29 29 33 39 47 50 46 38 39 36
55 62 63 63 63 66 67 66 65 66 64 65 62 57 50 47 40 38 41 38 34 34 31 29 30 38 34 49 46 48 42 42
47 53 62 64 68 68 70 70 68 55 58 61 66 60 55 52 47 38 39 45 38 36 34 32 33 34 35 42 40 42 42 42
50 53 57 62 65 69 73 74 69 61 55 56 61 62 58 53 51 45 34 44 39 35 34 36 34 38 42 45 43 45 44 44
54 54 57 59 62 69 73 75 72 65 63 57 58 62 60 56 53 48 42 42 45 37 37 39 36 44 41 45 47 45 47 46
58 57 53 57 62 67 70 73 73 71 62 54 59 57 62 61 56 54 44 37 50 42 40 38 39 41 43 39 52 50 49 48
55 55 57 61 60 60 68 70 72 72 68 64 59 61 64 63 60 56 53 43 51 56 48 43 37 40 43 46 49 46 47 50
54 53 53 56 59 68 67 66 69 73 70 67 62 68 67 66 65 57 55 44 51 53 50 48 44 41 43 46 51 50 49 50
43 45 49 49 48 60 73 72 71 73 72 72 65 77 62 67 65 64 57 52 53 59 54 51 49 48 48 46 49 53 51 50
36 37 43 43 46 55 69 79 77 76 75 74 72 71 71 66 68 68 53 60 60 59 56 55 52 53 52 51 49 49 49 50
27 34 39 48 50 49 61 79 82 79 78 78 77 70 64 60 75 64 70 62 62 63 55 46 58 53 54 49 49 48 47 47
22 28 35 38 43 43 54 71 85 83 80 81 77 71 63 74 54 71 59 65 72 69 57 51 57 56 54 52 47 49 46 46
Wind_Direction
222 228 240 239 249 234 230 226 233 237 232 230 233 240 245 249 250 240 225 231 224 220 214 209 206 207 205 209 207 208 202 212
231 220 216 217 239 239 228 228 228 237 238 230 234 240 241 241 244 250 246 233 223 216 219 216 211 210 209 212 212 207 209 210
227 223 215 219 230 225 218 228 222 232 237 234 232 234 234 233 240 247 252 233 227 209 219 218 213 211 209 208 219 211 209 212
226 226 223 217 225 232 215 223 221 228 230 233 229 234 234 229 241 257 260 237 241 231 215 218 215 214 212 211 222 214 212 212
224 226 223 221 228 231 230 214 220 223 229 232 229 235 238 232 237 245 246 243 244 220 222 224 222 217 203 202 209 220 216 213
221 226 223 223 229 231 229 223 217 219 228 229 229 223 244 234 228 236 242 246 246 252 254 253 227 212 208 210 211 214 214 215
225 224 224 222 229 233 233 225 222 215 226 232 229 229 230 239 231 229 238 247 245 247 246 250 252 210 206 207 205 208 211 216
224 221 223 221 225 231 232 227 219 215 215 229 232 229 232 240 234 240 233 240 242 252 246 249 258 227 222 224 197 210 213 217
219 219 218 220 221 228 231 228 229 215 211 213 226 228 231 233 235 238 235 238 239 238 244 243 246 229 240 230 214 216 213 222
211 214 216 218 218 224 229 230 233 229 211 219 221 218 227 233 233 236 240 232 233 234 235 240 235 231 232 215 208 219 222 225
221 216 216 217 217 222 227 230 234 232 226 223 228 228 220 228 229 231 236 230 232 231 232 234 235 241 229 214 216 221 221 227
227 226 225 222 218 220 225 228 232 231 228 221 224 232 227 227 233 229 230 234 228 227 230 232 232 235 240 224 218 221 227 229
219 222 221 227 224 220 223 227 230 231 228 221 222 229 234 224 230 232 228 239 229 229 228 231 231 234 237 226 226 227 230 233
219 222 225 222 225 222 222 225 228 231 229 226 229 226 234 226 226 230 233 242 232 229 233 232 235 234 237 236 239 232 237 234
219 222 224 226 230 228 222 221 225 228 227 229 229 228 224 229 225 224 231 233 226 227 229 236 237 239 240 237 237 237 241 237
224 228 227 229 230 231 224 220 220 225 225 230 226 227 231 224 224 227 228 225 226 227 229 232 236 236 242 244 244 242 240 242
224 231 230 232 236 235 228 223 220 221 224 225 227 226 232 222 220 222 224 229 229 228 232 233 235 239 239 242 244 246 243 241
248 240 236 240 244 236 234 225 222 222 224 224 225 230 230 228 219 217 219 227 228 234 238 236 228 231 238 241 242 242 244 244
253 260 258 249 239 232 234 228 223 223 223 226 226 227 230 237 227 220 221 219 232 231 234 235 226 223 230 237 240 240 240 242
Height
5711 5721 5730 5731 5727 5740 5744 5754 5756 5759 5765 5769 5774 5778 5780 5782 5786 5781 5791 5791 5798 5800 5804 5808 5814 5820 5824 5828 5833 5836 5840 5845
5697 5700 5706 5703 5715 5723 5734 5742 5749 5749 5756 5763 5768 5773 5774 5776 5779 5781 5779 5785 5792 5798 5802 5805 5810 5816 5821 5825 5828 5832 5837 5838
5687 5691 5694 5696 5701 5707 5724 5730 5738 5741 5746 5755 5760 5764 5766 5769 5770 5774 5774 5779 5785 5791 5796 5799 5805 5810 5815 5819 5823 5827 5831 5834
5675 5681 5688 5688 5692 5699 5714 5721 5729 5733 5737 5744 5750 5753 5756 5762 5767 5771 5774 5773 5780 5783 5789 5794 5800 5805 5809 5813 5818 5820 5825 5830
5663 5670 5678 5682 5685 5691 5701 5709 5720 5724 5729 5734 5741 5745 5751 5757 5761 5763 5766 5769 5774 5780 5784 5789 5794 5797 5801 5807 5813 5814 5819 5826
5651 5658 5667 5672 5676 5681 5692 5706 5708 5716 5719 5724 5732 5737 5742 5748 5753 5757 5760 5764 5768 5773 5777 5781 5787 5788 5794 5797 5802 5810 5815 5822
5634 5645 5654 5663 5668 5673 5680 5693 5699 5708 5712 5716 5721 5729 5732 5738 5745 5752 5756 5759 5763 5766 5769 5776 5780 5781 5784 5788 5794 5800 5807 5815
5619 5631 5641 5652 5657 5661 5667 5679 5683 5687 5698 5706 5711 5718 5725 5733 5739 5744 5749 5753 5757 5761 5765 5770 5771 5775 5777 5784 5787 5796 5804 5810
5604 5616 5627 5637 5643 5649 5656 5665 5665 5671 5680 5682 5697 5708 5716 5725 5733 5739 5744 5747 5751 5756 5760 5763 5767 5770 5774 5778 5784 5791 5797 5805
5593 5601 5612 5620 5630 5637 5645 5650 5656 5657 5671 5683 5684 5691 5702 5715 5724 5731 5736 5741 5744 5750 5753 5757 5765 5770 5771 5775 5781 5787 5792 5796
5583 5591 5598 5606 5617 5624 5631 5637 5643 5657 5670 5681 5684 5687 5690 5698 5710 5721 5727 5732 5737 5742 5748 5751 5754 5760 5765 5768 5773 5778 5784 5790
5574 5581 5588 5594 5602 5610 5617 5625 5634 5647 5659 5667 5673 5676 5686 5691 5699 5709 5718 5722 5728 5733 5738 5744 5748 5753 5757 5762 5764 5769 5775 5781
5564 5572 5578 5584 5589 5596 5603 5612 5621 5631 5646 5654 5661 5667 5673 5681 5687 5699 5710 5715 5719 5725 5729 5734 5740 5745 5748 5755 5760 5763 5768 5773
5553 5561 5567 5573 5579 5584 5591 5601 5610 5618 5630 5639 5649 5656 5662 5672 5677 5686 5696 5705 5710 5716 5719 5724 5730 5735 5740 5744 5753 5756 5759 5764
5545 5551 5557 5564 5568 5572 5579 5588 5598 5605 5616 5627 5638 5644 5649 5659 5668 5675 5683 5693 5699 5705 5710 5714 5721 5726 5730 5735 5740 5746 5749 5754
5535 5540 5546 5551 5555 5560 5565 5573 5582 5590 5601 5610 5622 5629 5635 5643 5654 5665 5675 5681 5686 5693 5699 5703 5708 5715 5719 5724 5729 5734 5739 5744
5527 5531 5534 5539 5544 5548 5552 5559 5568 5576 5585 5594 5606 5615 5622 5624 5639 5650 5661 5670 5674 5680 5687 5694 5698 5703 5709 5714 5719 5724 5727 5733
5518 5521 5524 5526 5530 5535 5540 5543 5553 5562 5570 5580 5589 5600 5612 5610 5626 5638 5647 5656 5662 5668 5673 5680 5688 5693 5699 5705 5709 5714 5718 5723
5512 5512 5513 5516 5517 5523 5525 5529 5536 5548 5556 5564 5575 5592 5601 5605 5611 5625 5620 5635 5646 5656 5662 5668 5676 5682 5686 5692 5698 5703 5708 5713